Location: Ulm
(48.3980°N, 9.9777°E)
Time: 12:18:05
(UTC+01:00)

ISS - Pass Details

Date: 12 January 2018
Orbit: 402 x 407 km, 51.6° (Epoch: 18 January)

Event Time Altitude Azimuth Distance (km) Brightness Sun altitude
Exits shadow 04:51:15 10° 88° (E) 1,457 -0.2 -32.0°
Drops below altitude 10° 04:51:16 10° 88° (E) 1,466 -0.1 -32.0°
Sets 04:53:23 0° 93° (E) 2,327 1.2 -31.6°
